Location: Martin
(32.0982°N, 93.2193°W)
Time: 04:21:00
(UTC+00:00)

ARIANE 6 FM1 Upper Stage - Pass Details

Date: 22 September 2024
Orbit: 563 x 594 km, 62.0° (Epoch: 11 October)

Event Time Altitude Azimuth Distance (km) Brightness Sun altitude
Exits shadow 09:11:01 16° 45° (NE) 1,574 5.5 -35.7°
Maximum altitude 09:11:10 16° 48° (NE) 1,572 5.5 -35.7°
Drops below altitude 10° 09:13:54 10° 87° (E) 1,932 6.1 -35.2°
Sets 09:16:55 0° 108° (ESE) 2,829 6.8 -34.6°
